Time,TemperatureF,DewpointF,PressureIn,WindDirection,WindDirectionDegrees,WindSpeedMPH,WindSpeedGustMPH,Humidity,HourlyPrecipIn,Conditions,Clouds,dailyrainin,SoftwareType,DateUTC
2013-02-22 00:00:00,20.7,17.0,30.26,South,188,2.0,-999.0,86,-99.99,,,0.00,weatherlink.com 1.10,2013-02-22 05:00:00,
2013-02-22 00:15:00,20.8,18.0,30.24,SSE,155,1.0,-999.0,87,-99.99,,,0.00,weatherlink.com 1.10,2013-02-22 05:15:00,
2013-02-22 00:30:00,20.9,18.0,30.23,SE,138,9.0,-999.0,87,-99.99,,,0.00,weatherlink.com 1.10,2013-02-22 05:30:00,
2013-02-22 00:45:00,21.0,18.0,30.21,SSE,153,6.0,-999.0,87,-99.99,,,0.00,weatherlink.com 1.10,2013-02-22 05:45:00,
2013-02-22 01:00:00,21.3,18.0,30.23,South,184,6.0,-999.0,88,-99.99,,,0.00,weatherlink.com 1.10,2013-02-22 06:00:00,
2013-02-22 01:15:00,21.5,19.0,30.24,SE,128,5.0,-999.0,88,-99.99,,,0.00,weatherlink.com 1.10,2013-02-22 06:15:00,
2013-02-22 01:30:00,21.7,19.0,30.24,South,171,2.0,-999.0,88,-99.99,,,0.00,weatherlink.com 1.10,2013-02-22 06:30:00,
2013-02-22 01:45:00,21.8,19.0,30.23,SSE,167,6.0,-999.0,87,-99.99,,,0.00,weatherlink.com 1.10,2013-02-22 06:45:00,
2013-02-22 02:00:00,21.8,19.0,30.22,SE,134,11.0,-999.0,87,-99.99,,,0.00,weatherlink.com 1.10,2013-02-22 07:00:00,
2013-02-22 02:15:00,21.8,19.0,30.21,SSE,157,5.0,-999.0,87,-99.99,,,0.00,weatherlink.com 1.10,2013-02-22 07:15:00,
2013-02-22 02:30:00,21.8,19.0,30.20,SSE,147,6.0,-999.0,87,-99.99,,,0.00,weatherlink.com 1.10,2013-02-22 07:30:00,
2013-02-22 02:45:00,21.8,19.0,30.19,South,182,4.0,-999.0,87,-99.99,,,0.00,weatherlink.com 1.10,2013-02-22 07:45:00,
2013-02-22 03:00:00,21.7,18.0,30.17,SE,140,6.0,-999.0,87,-99.99,,,0.00,weatherlink.com 1.10,2013-02-22 08:00:00,
2013-02-22 03:15:00,21.6,18.0,30.16,SSE,159,7.0,-999.0,86,-99.99,,,0.00,weatherlink.com 1.10,2013-02-22 08:15:00,
2013-02-22 03:30:00,21.6,18.0,30.14,SSE,149,9.0,-999.0,86,-99.99,,,0.00,weatherlink.com 1.10,2013-02-22 08:30:00,
2013-02-22 03:45:00,21.5,18.0,30.12,SE,145,9.0,-999.0,86,-99.99,,,0.00,weatherlink.com 1.10,2013-02-22 08:45:00,
2013-02-22 04:01:00,21.5,18.0,30.11,SE,138,6.0,-999.0,86,-99.99,,,0.00,weatherlink.com 1.10,2013-02-22 09:01:00,
2013-02-22 04:16:00,21.5,18.0,30.10,SSW,196,5.0,-999.0,86,-99.99,,,0.00,weatherlink.com 1.10,2013-02-22 09:16:00,
2013-02-22 04:31:00,21.6,18.0,30.09,SSW,200,5.0,-999.0,86,-99.99,,,0.00,weatherlink.com 1.10,2013-02-22 09:31:00,
2013-02-22 04:46:00,21.7,18.0,30.09,SE,142,8.0,-999.0,86,-99.99,,,0.00,weatherlink.com 1.10,2013-02-22 09:46:00,
2013-02-22 05:01:00,21.9,18.0,30.09,SSE,147,8.0,-999.0,85,-99.99,,,0.00,weatherlink.com 1.10,2013-02-22 10:01:00,
2013-02-22 05:16:00,22.1,18.0,30.08,SSE,156,7.0,-999.0,85,-99.99,,,0.00,weatherlink.com 1.10,2013-02-22 10:16:00,
2013-02-22 05:31:00,22.3,19.0,30.07,SSE,153,5.0,-999.0,85,-99.99,,,0.00,weatherlink.com 1.10,2013-02-22 10:31:00,
2013-02-22 05:46:00,22.6,19.0,30.08,SSE,148,6.0,-999.0,84,-99.99,,,0.00,weatherlink.com 1.10,2013-02-22 10:46:00,
2013-02-22 06:01:00,22.7,19.0,30.10,SSE,162,6.0,-999.0,84,-99.99,,,0.00,weatherlink.com 1.10,2013-02-22 11:01:00,
2013-02-22 06:16:00,22.7,19.0,30.09,SSE,161,6.0,-999.0,85,-99.99,,,0.00,weatherlink.com 1.10,2013-02-22 11:16:00,
2013-02-22 06:31:00,22.5,19.0,30.03,ESE,114,8.0,-999.0,87,-99.99,,,0.00,weatherlink.com 1.10,2013-02-22 11:31:00,
2013-02-22 06:46:00,22.5,20.0,30.02,SE,138,11.0,-999.0,88,-99.99,,,0.00,weatherlink.com 1.10,2013-02-22 11:46:00,
2013-02-22 07:01:00,22.9,20.0,30.02,SE,140,8.0,-999.0,88,-99.99,,,0.00,weatherlink.com 1.10,2013-02-22 12:01:00,
2013-02-22 07:16:00,23.2,21.0,30.03,SSE,166,8.0,-999.0,89,-99.99,,,0.00,weatherlink.com 1.10,2013-02-22 12:16:00,
2013-02-22 07:31:00,22.9,20.0,30.02,SE,136,7.0,-999.0,90,-99.99,,,0.00,weatherlink.com 1.10,2013-02-22 12:31:00,
2013-02-22 07:46:00,22.7,21.0,30.01,SE,139,11.0,-999.0,91,-99.99,,,0.00,weatherlink.com 1.10,2013-02-22 12:46:00,
2013-02-22 08:01:00,22.6,21.0,29.99,SE,136,10.0,-999.0,92,-99.99,,,0.00,weatherlink.com 1.10,2013-02-22 13:01:00,
2013-02-22 08:16:00,22.7,21.0,29.98,SE,127,7.0,-999.0,93,-99.99,,,0.00,weatherlink.com 1.10,2013-02-22 13:16:00,
2013-02-22 08:31:00,22.9,21.0,29.99,South,181,7.0,-999.0,93,-99.99,,,0.00,weatherlink.com 1.10,2013-02-22 13:31:00,
2013-02-22 08:46:00,23.1,21.0,29.99,SSE,150,6.0,-999.0,93,-99.99,,,0.00,weatherlink.com 1.10,2013-02-22 13:46:00,
2013-02-22 09:01:00,23.1,21.0,29.98,SE,142,7.0,-999.0,93,-99.99,,,0.00,weatherlink.com 1.10,2013-02-22 14:01:00,
2013-02-22 09:16:00,23.0,21.0,29.97,South,173,7.0,-999.0,93,-99.99,,,0.00,weatherlink.com 1.10,2013-02-22 14:16:00,
2013-02-22 09:31:00,23.1,21.0,29.97,South,180,9.0,-999.0,93,-99.99,,,0.00,weatherlink.com 1.10,2013-02-22 14:31:00,
2013-02-22 09:46:00,23.4,22.0,29.96,South,182,6.0,-999.0,93,-99.99,,,0.00,weatherlink.com 1.10,2013-02-22 14:46:00,
2013-02-22 10:01:00,23.7,22.0,29.96,South,186,8.0,-999.0,93,-99.99,,,0.00,weatherlink.com 1.10,2013-02-22 15:01:00,
2013-02-22 10:16:00,24.3,23.0,29.96,SW,229,10.0,-999.0,93,-99.99,,,0.00,weatherlink.com 1.10,2013-02-22 15:16:00,
2013-02-22 10:31:00,24.7,23.0,29.94,SSW,209,9.0,-999.0,93,-99.99,,,0.00,weatherlink.com 1.10,2013-02-22 15:31:00,
2013-02-22 10:47:00,25.0,23.0,29.93,SSW,192,3.0,-999.0,93,-99.99,,,0.00,weatherlink.com 1.10,2013-02-22 15:47:00,
2013-02-22 11:01:00,25.0,23.0,29.93,SSW,192,4.0,-999.0,93,-99.99,,,0.00,weatherlink.com 1.10,2013-02-22 16:01:00,
2013-02-22 11:16:00,25.4,24.0,29.93,SW,227,10.0,-999.0,93,-99.99,,,0.00,weatherlink.com 1.10,2013-02-22 16:16:00,
2013-02-22 11:31:00,25.7,24.0,29.93,SSE,150,9.0,-999.0,92,-99.99,,,0.00,weatherlink.com 1.10,2013-02-22 16:31:00,
2013-02-22 11:46:00,25.8,24.0,29.93,SW,214,14.0,-999.0,91,-99.99,,,0.00,weatherlink.com 1.10,2013-02-22 16:46:00,
2013-02-22 12:01:00,26.1,24.0,29.92,SSW,204,5.0,-999.0,91,-99.99,,,0.00,weatherlink.com 1.10,2013-02-22 17:01:00,
2013-02-22 12:16:00,26.2,24.0,29.92,SW,236,9.0,-999.0,90,-99.99,,,0.00,weatherlink.com 1.10,2013-02-22 17:16:00,
2013-02-22 12:31:00,26.4,24.0,29.91,SW,216,8.0,-999.0,91,-99.99,,,0.00,weatherlink.com 1.10,2013-02-22 17:31:00,
2013-02-22 12:46:00,26.7,25.0,29.91,SSW,204,10.0,-999.0,91,-99.99,,,0.00,weatherlink.com 1.10,2013-02-22 17:46:00,
2013-02-22 13:02:00,26.8,25.0,29.91,SW,229,10.0,-999.0,91,-99.99,,,0.00,weatherlink.com 1.10,2013-02-22 18:02:00,
2013-02-22 13:17:00,26.7,25.0,29.90,SW,226,13.0,-999.0,92,-99.99,,,0.00,weatherlink.com 1.10,2013-02-22 18:17:00,
2013-02-22 13:32:00,27.0,25.0,29.89,South,191,5.0,-999.0,92,-99.99,,,0.00,weatherlink.com 1.10,2013-02-22 18:32:00,
2013-02-22 13:47:00,27.0,25.0,29.89,SW,222,9.0,-999.0,92,-99.99,,,0.00,weatherlink.com 1.10,2013-02-22 18:47:00,
2013-02-22 14:02:00,27.2,26.0,29.89,SSW,213,6.0,-999.0,93,-99.99,,,0.00,weatherlink.com 1.10,2013-02-22 19:02:00,
2013-02-22 14:17:00,27.4,26.0,29.89,SSW,202,4.0,-999.0,93,-99.99,,,0.00,weatherlink.com 1.10,2013-02-22 19:17:00,
2013-02-22 14:32:00,27.5,26.0,29.89,SSW,210,5.0,-999.0,94,-99.99,,,0.00,weatherlink.com 1.10,2013-02-22 19:32:00,
2013-02-22 14:47:00,27.7,26.0,29.89,SSW,196,6.0,-999.0,94,-99.99,,,0.00,weatherlink.com 1.10,2013-02-22 19:47:00,
2013-02-22 15:02:00,27.9,26.0,29.89,SW,227,8.0,-999.0,94,-99.99,,,0.00,weatherlink.com 1.10,2013-02-22 20:02:00,
2013-02-22 15:17:00,28.0,27.0,29.89,SW,226,6.0,-999.0,95,-99.99,,,0.00,weatherlink.com 1.10,2013-02-22 20:17:00,
2013-02-22 15:32:00,28.3,27.0,29.88,WSW,239,6.0,-999.0,95,-99.99,,,0.00,weatherlink.com 1.10,2013-02-22 20:32:00,
2013-02-22 15:47:00,28.3,27.0,29.88,SSW,211,7.0,-999.0,95,-99.99,,,0.00,weatherlink.com 1.10,2013-02-22 20:47:00,
2013-02-22 16:02:00,28.5,27.0,29.88,SW,216,2.0,-999.0,95,-99.99,,,0.00,weatherlink.com 1.10,2013-02-22 21:02:00,
2013-02-22 16:17:00,28.7,28.0,29.88,SW,220,8.0,-999.0,95,-99.99,,,0.00,weatherlink.com 1.10,2013-02-22 21:17:00,
2013-02-22 16:32:00,28.8,28.0,29.88,SW,223,6.0,-999.0,95,-99.99,,,0.00,weatherlink.com 1.10,2013-02-22 21:32:00,
2013-02-22 16:47:00,28.9,28.0,29.88,SW,227,7.0,-999.0,96,-99.99,,,0.00,weatherlink.com 1.10,2013-02-22 21:47:00,
2013-02-22 17:02:00,29.2,28.0,29.88,SW,222,4.0,-999.0,96,-99.99,,,0.00,weatherlink.com 1.10,2013-02-22 22:02:00,
2013-02-22 17:17:00,29.3,28.0,29.88,WSW,240,5.0,-999.0,96,-99.99,,,0.00,weatherlink.com 1.10,2013-02-22 22:17:00,
2013-02-22 17:32:00,29.6,29.0,29.87,SW,221,5.0,-999.0,96,-99.99,,,0.00,weatherlink.com 1.10,2013-02-22 22:32:00,
2013-02-22 17:47:00,29.8,29.0,29.88,SW,232,6.0,-999.0,96,-99.99,,,0.00,weatherlink.com 1.10,2013-02-22 22:47:00,
2013-02-22 18:02:00,30.0,29.0,29.88,WSW,242,7.0,-999.0,96,-99.99,,,0.00,weatherlink.com 1.10,2013-02-22 23:02:00,
2013-02-22 18:17:00,30.1,29.0,29.88,SW,229,6.0,-999.0,96,-99.99,,,0.00,weatherlink.com 1.10,2013-02-22 23:17:00,
2013-02-22 18:32:00,30.1,29.0,29.89,West,266,5.0,-999.0,96,-99.99,,,0.00,weatherlink.com 1.10,2013-02-22 23:32:00,
2013-02-22 18:47:00,30.3,30.0,29.89,WSW,240,6.0,-999.0,97,-99.99,,,0.00,weatherlink.com 1.10,2013-02-22 23:47:00,
2013-02-22 19:02:00,30.4,30.0,29.89,WSW,251,7.0,-999.0,97,-99.99,,,0.00,weatherlink.com 1.10,2013-02-23 00:02:00,
2013-02-22 19:17:00,30.5,30.0,29.89,SW,233,6.0,-999.0,97,-99.99,,,0.00,weatherlink.com 1.10,2013-02-23 00:17:00,
2013-02-22 19:32:00,30.8,30.0,29.89,WSW,252,4.0,-999.0,97,-99.99,,,0.00,weatherlink.com 1.10,2013-02-23 00:32:00,
2013-02-22 19:47:00,30.9,30.0,29.89,WSW,248,6.0,-999.0,97,-99.99,,,0.00,weatherlink.com 1.10,2013-02-23 00:47:00,
2013-02-22 20:02:00,31.1,30.0,29.88,WSW,250,6.0,-999.0,97,-99.99,,,0.00,weatherlink.com 1.10,2013-02-23 01:02:00,
2013-02-22 20:17:00,31.2,31.0,29.88,WSW,257,5.0,-999.0,97,-99.99,,,0.00,weatherlink.com 1.10,2013-02-23 01:17:00,
2013-02-22 20:32:00,31.4,31.0,29.88,West,263,4.0,-999.0,97,-99.99,,,0.00,weatherlink.com 1.10,2013-02-23 01:32:00,
2013-02-22 20:47:00,31.7,31.0,29.88,West,280,5.0,-999.0,97,-99.99,,,0.00,weatherlink.com 1.10,2013-02-23 01:47:00,
2013-02-22 21:02:00,31.9,31.0,29.88,WNW,292,4.0,-999.0,97,-99.99,,,0.00,weatherlink.com 1.10,2013-02-23 02:02:00,
2013-02-22 21:17:00,32.0,31.0,29.88,West,273,6.0,-999.0,97,-99.99,,,0.00,weatherlink.com 1.10,2013-02-23 02:17:00,
2013-02-22 21:32:00,32.1,31.0,29.88,West,278,4.0,-999.0,97,-99.99,,,0.00,weatherlink.com 1.10,2013-02-23 02:32:00,
2013-02-22 21:47:00,32.3,32.0,29.89,West,261,6.0,-999.0,97,-99.99,,,0.00,weatherlink.com 1.10,2013-02-23 02:47:00,
2013-02-22 22:02:00,32.3,32.0,29.88,West,280,4.0,-999.0,97,-99.99,,,0.00,weatherlink.com 1.10,2013-02-23 03:02:00,
2013-02-22 22:17:00,32.4,32.0,29.88,West,270,5.0,-999.0,97,-99.99,,,0.00,weatherlink.com 1.10,2013-02-23 03:17:00,
2013-02-22 22:32:00,32.4,32.0,29.88,West,260,6.0,-999.0,97,-99.99,,,0.00,weatherlink.com 1.10,2013-02-23 03:32:00,
2013-02-22 22:47:00,32.5,32.0,29.88,WNW,282,5.0,-999.0,96,-99.99,,,0.00,weatherlink.com 1.10,2013-02-23 03:47:00,
2013-02-22 23:02:00,32.4,31.0,29.88,West,262,7.0,-999.0,96,-99.99,,,0.00,weatherlink.com 1.10,2013-02-23 04:02:00,
2013-02-22 23:17:00,32.3,31.0,29.88,West,267,5.0,-999.0,96,-99.99,,,0.00,weatherlink.com 1.10,2013-02-23 04:17:00,
2013-02-22 23:32:00,32.3,31.0,29.88,NW,312,8.0,-999.0,95,-99.99,,,0.00,weatherlink.com 1.10,2013-02-23 04:32:00,
2013-02-22 23:47:00,32.1,31.0,29.87,WNW,289,5.0,-999.0,95,-99.99,,,0.00,weatherlink.com 1.10,2013-02-23 04:47:00,